Regional Weather Roundup
Issued by NWS

Home | Current Version | Previous Version | Text Only | Print | Product List | Glossary Off
Versions: 1 2 3 4 5 6 7 8 9 10 11 12 13 14 15 16 17 18 19 20 21 22 23 24 25 26 27 28 29 30 31 32 33 34 35 36 37 38 39 40 41 42 43 44 45 46 47 48 49 50

000
ASUS43 KFSD 301102
RWRSD

WEATHER ROUNDUP FOR SOUTH DAKOTA
NATIONAL WEATHER SERVICE SIOUX FALLS SD
600 AM CDT SUN APR 30 2017

NOTE: "FAIR" INDICATES FEW OR NO CLOUDS BELOW 12,000 FEET WITH NO
SIGNIFICANT WEATHER AND/OR OBSTRUCTIONS TO VISIBILITY.


SDZ001>005-009-010-012>017-301200-
NORTHWEST AND NORTH CENTRAL SOUTH DAKOTA

CITY           SKY/WX    TMP DP  RH WIND       PRES   REMARKS
BUFFALO          N/A     37  22  54 W3        30.01F
FAITH            N/A     33  23  66 NW5       30.08F WCI  29
MOBRIDGE       CLEAR     32  22  66 CALM      30.08F
$$

SDZ012>016-024>037-041>051-057-063-072>074-301200-
SOUTHWEST AND SOUTH CENTRAL SOUTH DAKOTA

CITY           SKY/WX    TMP DP  RH WIND       PRES   REMARKS
RAPID CTY ARPT CLEAR     34  21  59 W15       30.07F WCI  24
PIERRE         PTCLDY    34  23  64 N12       30.06F WCI  25
CUSTER         CLEAR     27  14  58 NW6       30.06F WCI  20
ELLSWORTH AFB  CLEAR     27  21  79 NW6       30.06F WCI  21
PHILIP         CLEAR     22  20  92 W7        30.08F WCI  13
PINE RIDGE     CLOUDY    24  22  91 CALM      30.06F
SPEARFISH      FAIR      32  18  55 CALM      30.08F
WINNER         FAIR      32  25  75 NW7       30.04F WCI  26
$$

SDZ004>011-016>023-039-040-301200-
NORTHEAST SOUTH DAKOTA

CITY           SKY/WX    TMP DP  RH WIND       PRES   REMARKS
ABERDEEN       CLOUDY    31  26  82 N8        30.09F WCI  23
WATERTOWN      CLOUDY    35  23  61 N8        30.05F WCI  29
BROOKINGS      MOCLDY    40  25  55 NE9       30.02F
SISSETON         N/A     36  29  75 N7        30.10F
$$

SDZ017-020-022-023-036>040-048>070-301200-
SOUTHEAST SOUTH DAKOTA

CITY           SKY/WX    TMP DP  RH WIND       PRES   REMARKS
SIOUX FALLS    CLOUDY    44  29  55 NE13      29.99F
HURON          CLOUDY    39  27  62 N10       30.05F
CHAMBERLAIN    CLOUDY    42  27  55 N10       30.03F
MITCHELL       MOCLDY    40  29  64 N8        30.03F
YANKTON        CLOUDY    45  28  53 E14       29.97F
$$

ABBREVIATIONS USED IN REMARKS
   TC - TEMPERATURE IN CELSIUS
  WCI - WIND CHILL INDEX
   HX - HEAT INDEX
  VSB - VISIBILITY




USA.gov is the U.S. government's official web portal to all federal, state and local government web resources and services.